| time (UTC) | temp C | wind direction | speed KPH | gust KPH | rain 1hr cm | rain 24hr cm | rain mn cm | humidity % | barometer mb |
| 20260507130058 | 20 | 9.7 | 9.7 | 0.00 | 2.06 | 0.00 | 64 | 1013.5 | |
| 20260507124602 | 20 | 232 | 3.2 | 22.5 | 0.00 | 2.06 | 0.00 | 64 | 1013.4 |
| 20260507123053 | 20 | 130 | 3.2 | 9.7 | 0.00 | 2.06 | 0.00 | 63 | 1013.3 |
| 20260507121556 | 20 | 155 | 3.2 | 12.9 | 0.00 | 2.06 | 0.00 | 62 | 1013.4 |
| 20260507120057 | 20 | 146 | 3.2 | 16.1 | 0.00 | 2.06 | 0.00 | 63 | 1013.5 |
| 20260507114607 | 21 | 240 | 3.2 | 14.5 | 0.00 | 2.06 | 0.00 | 60 | 1013.6 |
| 20260507113124 | 20 | 144 | 3.2 | 9.7 | 0.00 | 2.06 | 0.00 | 64 | 1013.8 |
| 20260507111559 | 20 | 228 | 3.2 | 8.0 | 0.00 | 2.06 | 0.00 | 61 | 1013.9 |
| 20260507110056 | 20 | 183 | 1.6 | 14.5 | 0.00 | 2.06 | 0.00 | 62 | 1014.0 |
| 20260507104556 | 19 | 166 | 1.6 | 9.7 | 0.00 | 2.06 | 0.00 | 64 | 1014.2 |
| 20260507103056 | 18 | 182 | 3.2 | 14.5 | 0.00 | 2.06 | 0.00 | 67 | 1014.3 |
| 20260507101557 | 18 | 209 | 4.8 | 14.5 | 0.00 | 2.06 | 0.00 | 68 | 1014.5 |
| 20260507100106 | 18 | 208 | 4.8 | 9.7 | 0.00 | 2.06 | 0.00 | 65 | 1014.4 |
| 20260507094602 | 17 | 175 | 0.0 | 9.7 | 0.00 | 2.06 | 0.00 | 69 | 1014.4 |
| 20260507093055 | 17 | 252 | 3.2 | 11.3 | 0.00 | 2.06 | 0.00 | 69 | 1014.4 |
| 20260507091601 | 17 | 214 | 3.2 | 11.3 | 0.00 | 2.06 | 0.00 | 71 | 1014.5 |
| 20260507090053 | 16 | 205 | 3.2 | 8.0 | 0.00 | 2.06 | 0.00 | 72 | 1014.5 |
| 20260507084604 | 17 | 0 | 1.6 | 9.7 | 0.00 | 2.06 | 0.00 | 71 | 1014.6 |
| 20260507083053 | 16 | 268 | 1.6 | 11.3 | 0.00 | 2.06 | 0.00 | 73 | 1014.7 |
| 20260507081558 | 16 | 0 | 1.6 | 8.0 | 0.00 | 2.06 | 0.00 | 71 | 1014.8 |
| 20260507080055 | 15 | 241 | 1.6 | 4.8 | 0.00 | 2.06 | 0.00 | 74 | 1014.7 |
| 20260507074558 | 15 | 212 | 1.6 | 4.8 | 0.00 | 2.06 | 0.00 | 75 | 1014.6 |
| 20260507073057 | 15 | 0 | 0.0 | 3.2 | 0.00 | 2.06 | 0.00 | 76 | 1014.7 |
| 20260507071554 | 14 | 0 | 1.6 | 8.0 | 0.00 | 2.06 | 0.00 | 80 | 1014.7 |
| 20260507070104 | 13 | 58 | 0.0 | 9.7 | 0.00 | 2.06 | 0.00 | 80 | 1014.7 |
| 20260507064555 | 13 | 80 | 1.6 | 8.0 | 0.00 | 2.06 | 0.00 | 82 | 1014.5 |
| 20260507063056 | -17 | 0.0 | 0.0 | 0.00 | 2.06 | 0.00 | 1014.4 | ||
| 20260507061554 | 11 | 0 | 1.6 | 4.8 | 0.00 | 2.06 | 0.00 | 94 | 1014.2 |
| 20260507060105 | 11 | 0 | 0.0 | 4.8 | 0.00 | 2.06 | 0.00 | 96 | 1014.2 |
| 20260507054558 | 10 | 147 | 1.6 | 4.8 | 0.00 | 2.06 | 0.00 | 96 | 1014.0 |
| 20260507053059 | 9 | 0 | 0.0 | 3.2 | 0.00 | 2.06 | 0.00 | 95 | 1014.2 |
| 20260507051555 | 9 | 0 | 0.0 | 0.0 | 0.00 | 2.06 | 0.00 | 95 | 1014.2 |
| 20260507044610 | 8 | 0 | 0.0 | 1.6 | 0.00 | 2.06 | 0.00 | 95 | 1014.0 |
| 20260507043104 | 9 | 0 | 0.0 | 4.8 | 0.00 | 2.06 | 0.00 | 95 | 1013.9 |
| 20260507041601 | 9 | 0 | 0.0 | 0.0 | 0.00 | 2.06 | 0.00 | 94 | 1014.0 |
| 20260507040058 | 9 | 0 | 0.0 | 1.6 | 0.00 | 2.06 | 0.00 | 94 | 1013.9 |
| 20260507034555 | 9 | 0 | 0.0 | 1.6 | 0.00 | 2.06 | 0.00 | 94 | 1013.8 |
| 20260507033056 | -17 | 0.0 | 0.0 | 0.00 | 2.06 | 0.00 | 1013.8 | ||
| 20260507031554 | -17 | 0.0 | 0.0 | 0.00 | 2.06 | 0.00 | 1013.9 | ||
| 20260507030052 | -17 | 0.0 | 0.0 | 0.00 | 2.06 | 0.00 | 1013.7 | ||
| 20260507024556 | -17 | 0.0 | 0.0 | 0.00 | 2.06 | 0.00 | 1013.9 | ||
| 20260507023108 | -17 | 0.0 | 0.0 | 0.00 | 2.06 | 0.00 | 1014.0 | ||
| 20260507021554 | -17 | 0.0 | 0.0 | 0.00 | 2.06 | 0.00 | 1013.8 | ||
| 20260507014557 | -17 | 0.0 | 0.0 | 0.00 | 2.06 | 0.00 | 1013.8 | ||
| 20260507013051 | -17 | 0.0 | 0.0 | 0.00 | 2.06 | 0.00 | 1014.0 | ||
| 20260507011552 | -17 | 0.0 | 0.0 | 0.00 | 2.06 | 0.00 | 1014.2 | ||
| 20260507010054 | 11 | 51 | 3.2 | 4.8 | 0.00 | 2.06 | 0.00 | 95 | 1014.3 |
| 20260507004555 | 11 | 51 | 1.6 | 6.4 | 0.00 | 2.06 | 0.00 | 95 | 1014.4 |
| 20260507003114 | 11 | 57 | 1.6 | 3.2 | 0.00 | 2.06 | 0.00 | 95 | 1014.6 |
| 20260507001613 | 11 | 57 | 1.6 | 4.8 | 0.00 | 2.06 | 0.00 | 95 | 1014.6 |
| 20260507000056 | 11 | 63 | 0.0 | 3.2 | 0.00 | 2.03 | 0.00 | 95 | 1014.8 |
| 20260506234556 | 11 | 0 | 0.0 | 1.6 | 0.00 | 2.03 | 0.00 | 95 | 1014.8 |
| 20260506233055 | 11 | 0 | 0.0 | 0.0 | 0.00 | 2.03 | 0.00 | 95 | 1014.9 |
| 20260506231605 | 11 | 44 | 1.6 | 4.8 | 0.00 | 2.03 | 0.00 | 95 | 1014.9 |
| 20260506230115 | 11 | 0 | 1.6 | 4.8 | 0.00 | 2.03 | 0.00 | 95 | 1014.9 |
| 20260506224552 | 11 | 0 | 0.0 | 0.0 | 0.00 | 2.03 | 0.00 | 95 | 1015.0 |
| 20260506223100 | 11 | 0 | 0.0 | 0.0 | 0.00 | 2.03 | 0.00 | 95 | 1014.9 |
| 20260506221605 | 12 | 0 | 0.0 | 1.6 | 0.00 | 2.03 | 0.00 | 95 | 1014.8 |
| 20260506220058 | 11 | 0 | 0.0 | 4.8 | 0.00 | 2.03 | 0.00 | 95 | 1014.9 |
| 20260506214557 | 12 | 0 | 0.0 | 1.6 | 0.00 | 2.01 | 2.01 | 95 | 1014.9 |
| 20260506213102 | 12 | 0 | 0.0 | 1.6 | 0.00 | 2.01 | 2.01 | 95 | 1014.7 |
| 20260506211554 | 12 | 237 | 0.0 | 3.2 | 0.00 | 2.01 | 2.01 | 94 | 1014.6 |
| 20260506210058 | 12 | 0 | 0.0 | 1.6 | 0.00 | 2.01 | 2.01 | 94 | 1014.6 |
| 20260506204556 | 12 | 0 | 0.0 | 0.0 | 0.00 | 2.01 | 2.01 | 95 | 1014.6 |
| 20260506203116 | 12 | 0 | 0.0 | 3.2 | 0.00 | 2.01 | 2.01 | 94 | 1014.5 |
| 20260506201553 | 12 | 0 | 0.0 | 4.8 | 0.03 | 2.01 | 2.01 | 94 | 1014.4 |
| 20260506200058 | 12 | 0 | 0.0 | 4.8 | 0.05 | 2.01 | 2.01 | 94 | 1014.4 |
| 20260506194554 | 12 | 0 | 0.0 | 3.2 | 0.08 | 4.04 | 2.01 | 94 | 1014.1 |
| 20260506193101 | 12 | 0 | 0.0 | 4.8 | 0.18 | 4.01 | 1.98 | 94 | 1014.2 |
| 20260506191555 | 12 | 0 | 0.0 | 4.8 | 0.20 | 3.99 | 1.96 | 94 | 1014.1 |
| 20260506190058 | 12 | 81 | 1.6 | 4.8 | 0.28 | 3.96 | 1.96 | 94 | 1014.0 |
| 20260506184557 | 12 | 0 | 0.0 | 4.8 | 0.23 | 4.11 | 1.91 | 94 | 1013.9 |
| 20260506183105 | 12 | 0 | 0.0 | 1.6 | 0.10 | 3.99 | 1.78 | 94 | 1013.8 |
| 20260506181558 | 12 | 0 | 0.0 | 4.8 | 0.08 | 3.94 | 1.75 | 94 | 1013.8 |
| 20260506180053 | 12 | 0 | 0.0 | 0.0 | 0.18 | 3.86 | 1.68 | 94 | 1013.5 |
| 20260506174552 | 12 | 0 | 0.0 | 1.6 | 0.23 | 3.86 | 1.68 | 94 | 1013.1 |
| 20260506173109 | 12 | 0 | 0.0 | 3.2 | 0.23 | 3.86 | 1.68 | 93 | 1012.9 |
| 20260506171554 | 12 | 0 | 0.0 | 0.0 | 0.20 | 3.84 | 1.65 | 93 | 1012.9 |
| 20260506170107 | 13 | 0 | 0.0 | 6.4 | 0.03 | 3.66 | 1.47 | 93 | 1013.0 |
| 20260506164611 | 13 | 0 | 0.0 | 6.4 | 0.00 | 3.66 | 1.42 | 92 | 1012.7 |
| 20260506163101 | 13 | 0 | 3.2 | 12.9 | 0.00 | 3.66 | 1.42 | 92 | 1012.7 |
| 20260506161557 | 13 | 227 | 0.0 | 8.0 | 0.08 | 3.66 | 1.42 | 92 | 1012.5 |
| 20260506160122 | 13 | 246 | 0.0 | 8.0 | 0.20 | 3.66 | 1.42 | 93 | 1012.3 |
| 20260506154600 | 13 | 0 | 0.0 | 0.0 | 0.28 | 3.84 | 1.42 | 94 | 1012.3 |
| 20260506153054 | 13 | 280 | 4.8 | 9.7 | 0.30 | 3.81 | 1.40 | 93 | 1012.4 |
| 20260506151604 | 12 | 0 | 0.0 | 6.4 | 0.66 | 3.73 | 1.32 | 93 | 1012.1 |
| 20260506150103 | 13 | 0 | 0.0 | 4.8 | 1.12 | 3.61 | 1.22 | 92 | 1012.4 |
| 20260506144552 | 13 | 61 | 0.0 | 4.8 | 1.07 | 3.53 | 1.12 | 92 | 1012.4 |
| 20260506143056 | 13 | 327 | 3.2 | 12.9 | 1.02 | 3.48 | 1.09 | 90 | 1011.9 |
| 20260506141555 | 13 | 65 | 4.8 | 12.9 | 0.64 | 3.02 | 0.64 | 86 | 1012.2 |
| 20260506140055 | 14 | 44 | 8.0 | 19.3 | 0.08 | 2.49 | 0.08 | 83 | 1012.0 |
| 20260506134556 | 14 | 85 | 8.0 | 19.3 | 0.05 | 2.64 | 0.05 | 82 | 1011.9 |
| 20260506133107 | 15 | 125 | 3.2 | 14.5 | 0.05 | 2.64 | 0.05 | 83 | 1012.0 |
| 20260506131614 | 15 | 166 | 3.2 | 19.3 | 0.00 | 2.59 | 0.00 | 77 | 1012.0 |